Regional Weather Roundup
Issued by NWS

Home | Current Version | Previous Version | Graphics & Text | Print | Product List | Glossary Off
Versions: 1 2 3 4 5 6 7 8 9 10 11 12 13 14 15 16 17 18 19 20 21 22 23 24 25 26 27 28 29 30

000
ASUS43 KDMX 291007
RWRIA

WEATHER ROUNDUP FOR IOWA
NATIONAL WEATHER SERVICE DES MOINES IA
500 AM CDT WED OCT 29 2014

NOTE: "FAIR" INDICATES FEW OR NO CLOUDS BELOW 12,000 FEET WITH NO
SIGNIFICANT WEATHER AND/OR OBSTRUCTIONS TO VISIBILITY.

* - THESE STATIONS ARE NOT NWS STATIONS...THUS NOT UNDER NWS
QUALITY CONTROL.  THEY ALSO DO NOT REPORT WEATHER SUCH
AS PRECIPITATION OR FOG.

IAZ001>003-012>014-020>022-031>034-043>046-291100-
   NORTHWEST IOWA

CITY           SKY/WX    TMP DP  RH WIND       PRES   REMARKS
CARROLL *      CLOUDY    43  32  65 NW9G18    30.14R
CHEROKEE *     MOCLDY    41  32  70 NW8       30.15R
DENISON *      CLEAR     34  32  93 W3        30.15S
LE MARS *      CLOUDY    37  32  81 W7        30.17S WCI  32
ORANGE CITY *  MOCLDY    43  30  61 NW10G16   30.15R
SHELDON *      CLOUDY    41  30  65 NW9G20    30.13S
SIOUX CITY     CLEAR     32  29  88 W6        30.19R WCI  26
SPENCER        CLOUDY    40  31  70 NW9       30.14R WCI  34
STORM LAKE *   CLOUDY    41  30  65 NW16G22   30.14S
$$

IAZ055>058-069>071-079>083-090>094-291100-
   SOUTHWEST IOWA

CITY           SKY/WX    TMP DP  RH WIND       PRES   REMARKS
ATLANTIC *     CLEAR     36  32  87 W8        30.17R WCI  29
AUDUBON *      CLEAR     36  28  75 CALM      30.17R
CLARINDA *     CLEAR     32  30  93 CALM      30.21R
COUNCIL BLFS * CLEAR     36  32  87 W6        30.18R WCI  31
CRESTON *      CLEAR     32  30  93 W6        30.16S WCI  26
HARLAN  *      CLEAR     34  32  93 W8        30.21R WCI  27
LAMONI         CLEAR     36  32  85 W7        30.16S WCI  30
RED OAK *      CLEAR     34  30  86 W5        30.19R WCI  30
SHENANDOAH *   CLEAR     34  32  93 SW6       30.21R FOG     WCI  29
$$

IAZ047>049-059>061-072>074-084-291100-
   CENTRAL IOWA

CITY           SKY/WX    TMP DP  RH WIND       PRES   REMARKS
AMES           CLEAR     43  31  62 NW13      30.12R
ANKENY *       CLOUDY    45  32  61 NW8       30.13R
CHARITON *     MOCLDY    39  32  75 W9        30.14R WCI  33
DES MOINES     PTCLDY    45  31  58 NW12      30.13S
GRINNELL*      CLOUDY    45  32  61 W12G20    30.10R
KNOXVILLE *    MOCLDY    37  32  81 W9        30.12R WCI  31
MARSHALLTOWN   PTCLDY    42  32  67 NW16      30.09R
PELLA *        CLOUDY    43  34  70 W7        30.13R
PERRY *          N/A     41  32  70 W6        30.14R
$$

IAZ004>006-015-016-023>025-035-036-291100-
   NORTH CENTRAL IOWA

CITY           SKY/WX    TMP DP  RH WIND       PRES   REMARKS
ALGONA *       CLEAR     36  32  87 W6        30.12R WCI  31
CLARION *      PTCLDY    37  32  81 NW8       30.11R WCI  31
ESTHERVILLE    PTCLDY    34  30  85 NW8       30.11R WCI  27
FORT DODGE *   CLEAR     37  28  70 NW5       30.13R WCI  34
MASON CITY     CLOUDY    40  31  70 NW18G24   30.09R WCI  31
FOREST CITY *  CLOUDY    41  32  70 NW16      30.09R
IOWA FALLS *     N/A     39  32  75 NW12G18   30.10S WCI  32
$$

IAZ007>011-017>019-026>030-037>042-050>054-066-291100-
   NORTHEAST IOWA

CITY           SKY/WX    TMP DP  RH WIND       PRES   REMARKS
CEDAR RAPIDS   CLEAR     39  31  72 W9        30.07R WCI  33
CHARLES CITY * CLOUDY    39  30  70 NW16G26   30.06R WCI  30
CLINTON *      CLEAR     41  27  56 W8        30.07R
DECORAH *      CLOUDY    39  30  70 NW8G17    30.02R WCI  34
DUBUQUE        CLOUDY    40  31  70 W9        30.03R WCI  34
MONTICELLO *   PTCLDY    41  32  70 W9        30.05R
OELWEIN *      CLOUDY    41  32  70 NW18G32   30.05R
WATERLOO       PTCLDY    40  31  70 NW12      30.06R WCI  33
$$

IAZ064-065-067-068-078-291100-
   EAST CENTRAL IOWA

CITY           SKY/WX    TMP DP  RH WIND       PRES   REMARKS
DAVENPORT      PTCLDY    42  28  57 NW13      30.06R
IOWA CITY      PTCLDY    44  31  60 W13       30.09S
MT. PLEASANT * CLOUDY    39  34  81 W7        30.11S WCI  34
MUSCATINE *    CLOUDY    46  32  57 NW14G22   30.09S
QUAD CITIES    CLOUDY    47  31  53 NW21G29   30.06R
$$

IAZ062-063-075>077-085>089-095>099-291100-
   SOUTHEAST IOWA

CITY           SKY/WX    TMP DP  RH WIND       PRES   REMARKS
BURLINGTON     CLEAR     38  33  82 W5        30.10R WCI  34
FAIRFIELD *    CLOUDY    41  34  75 W7        30.11S
FORT MADISON * CLEAR     41  36  81 W6        30.12R
KEOKUK *       CLEAR     39  34  81 W9        30.12R WCI  33
OSKALOOSA *    CLOUDY    39  34  81 W9        30.12R WCI  33
CENTERVILLE *  MOCLDY    37  32  81 W7        30.16R WCI  32
OTTUMWA        CLOUDY    40  33  76 W7        30.12R
WASHINGTON *   CLOUDY    41  37  87 W5        30.10R
$$

ABBREVIATIONS USED IN REMARKS
   TC - TEMPERATURES IN CELSIUS
  WCI - WIND CHILL INDEX
   HX - HEAT INDEX
  VSB - VISIBILITY
$$




USA.gov is the U.S. government's official web portal to all federal, state and local government web resources and services.